Weather in Shyrmivka

Ukraine / Vinnytsia Region     49°33′49″N   29°05′35″E
temp.,
°C
wind,
m/s
gust,
m/s
humid.,
%
clouds,
%
prec.,
mm/h
press.,
hPa
HPBL,
m
19 september, sun
sun1900:00+11wnw389395 0.0 1008334
03:00+11wsw22947 0.0 100948
06:00+10sw369818 0.0 1007130
09:00+11sw4691100 0.1 1007297
12:00+12w6779100 0.1 1007736
15:00+7w5886100 0.8 1009495
18:00+7w5883100 0.4 10091034
21:00+6w5888100 0.4 1010941
20 september, mon
mon2000:00+6w6890100 0.1 1009961
03:00+6w6990100 0.2 1009969
06:00+6w6992100 0.1 1009863
09:00+6w61192100 0.1 1010611
12:00+7w61091100 0.1 1011753
15:00+7wnw71089100 0.1 1012658
18:00+6wnw61193100 0.2 1013590
21:00+6wnw61193100 0.3 1015539
21 september, tue
tue2100:00+6wnw61193100 0.1 1016625
03:00+5wnw61186100 0.1 1016821
06:00+4wnw61184100 0.0 1017848
09:00+4wnw71193100 0.1 1017892
12:00+5wnw71287100 0.0 1018908
15:00+6wnw71286100 0.1 1019922
18:00+5wnw71289100 0.0 1020871
21:00+5wnw61196100 0.0 1020782
22 september, wed
wed2200:00+5nw61086100 0.0 1020939
03:00+5wnw5989100 0.1 1020829
06:00+5wnw5990100 0.3 1019937
09:00+5nw5885100 0.3 10191070
12:00+5nw5892100 0.1 1019774
15:00+7nnw6975100 0.4 10181073
18:00+6nnw4885100 0.4 1017952
21:00+5nnw4990100 0.7 1018867
23 september, thu
thu2300:00+5nnw3691100 0.1 1017770
03:00+5nw3593100 0.2 1016696
06:00+5nw4694100 0.3 1016530
09:00+5nw4691100 0.3 1016550
12:00+7nw3480100 0.1 1016789
15:00+9nw336899 0.4 10151138
18:00+9wnw346757 0.1 1015243
21:00+7ssw227596 0.2 101632